DLH2EW EDDF-EPWA

Flight info

Callsign DLH2EW
Flight time N/A
Altitude 39000
Route SULUS4D/07C SULUS L984 OKG DCT BALTU DCT LEGAZ DCT LAGAR DCT OKENO Q277 AGAVA
Aircraft A320/M-SDE2E3FGIJ1LORWXYZ/HB1

Departure

Time 2026-05-01 14:32
Airport Frankfurt Main Airport (EDDF)

Arrival

Time N/A
Airport Warsaw Chopin Airport (EPWA)
Time Latitude Longitude Altitude Speed Heading
2026-05-01 14:01 50.04852 8.56946 356 ft 0 kts 295°
2026-05-01 14:22 50.04844 8.56974 362 ft 4 kts 291°
2026-05-01 14:22 50.04836 8.57014 357 ft 4 kts 279°
2026-05-01 14:22 50.04835 8.57052 361 ft 4 kts 244°
2026-05-01 14:22 50.04844 8.57069 361 ft 0 kts 205°
2026-05-01 14:26 50.04826 8.57057 364 ft 7 kts 205°
2026-05-01 14:26 50.04680 8.56954 361 ft 18 kts 203°
2026-05-01 14:26 50.04558 8.56893 361 ft 18 kts 193°
2026-05-01 14:27 50.04429 8.56850 366 ft 20 kts 187°
2026-05-01 14:27 50.04302 8.56814 360 ft 14 kts 191°
2026-05-01 14:27 50.04229 8.56705 358 ft 18 kts 250°
2026-05-01 14:28 50.04107 8.56194 358 ft 28 kts 250°
2026-05-01 14:28 50.04041 8.55922 351 ft 25 kts 249°
2026-05-01 14:28 50.03978 8.55655 353 ft 28 kts 250°
2026-05-01 14:28 50.03911 8.55376 349 ft 23 kts 250°
2026-05-01 14:29 50.03854 8.55135 352 ft 24 kts 249°
2026-05-01 14:29 50.03793 8.54884 358 ft 25 kts 250°
2026-05-01 14:30 50.03656 8.54328 347 ft 3 kts 234°
2026-05-01 14:30 50.03626 8.54306 346 ft 5 kts 184°
2026-05-01 14:30 50.03575 8.54330 336 ft 3 kts 160°
2026-05-01 14:31 50.03574 8.54331 351 ft 2 kts 160°
2026-05-01 14:31 50.03519 8.54361 351 ft 10 kts 160°
2026-05-01 14:31 50.03500 8.54457 349 ft 13 kts 70°
2026-05-01 14:31 50.03564 8.54728 354 ft 57 kts 69°
2026-05-01 14:32 50.03791 8.55677 351 ft 124 kts 70°
2026-05-01 14:32 50.04150 8.57145 528 ft 159 kts 73°
2026-05-01 14:32 50.04533 8.58739 1350 ft 157 kts 73°
2026-05-01 14:32 50.04912 8.60413 1904 ft 175 kts 75°
2026-05-01 14:33 50.05327 8.62321 2310 ft 198 kts 73°
2026-05-01 14:33 50.05791 8.64444 2740 ft 217 kts 73°
2026-05-01 14:33 50.06288 8.66698 3619 ft 223 kts 73°
2026-05-01 14:33 50.06798 8.68992 4529 ft 227 kts 74°
2026-05-01 14:34 50.07163 8.71396 5317 ft 231 kts 93°
2026-05-01 14:34 50.06968 8.73975 5823 ft 252 kts 103°
2026-05-01 14:34 50.06646 8.76741 6555 ft 265 kts 103°
2026-05-01 14:34 50.06307 8.79587 7460 ft 270 kts 103°
2026-05-01 14:35 50.05965 8.82481 8398 ft 274 kts 102°
2026-05-01 14:35 50.05754 8.85455 9378 ft 280 kts 92°
2026-05-01 14:35 50.05809 8.88505 10323 ft 284 kts 90°
2026-05-01 14:35 50.05867 8.91663 10839 ft 303 kts 90°
2026-05-01 14:36 50.05925 8.95044 11357 ft 319 kts 91°
2026-05-01 14:36 50.05984 8.98521 12182 ft 323 kts 90°
2026-05-01 14:36 50.06044 9.02033 13051 ft 326 kts 90°
2026-05-01 14:36 50.06104 9.05580 13901 ft 330 kts 90°
2026-05-01 14:37 50.06162 9.09166 14657 ft 334 kts 90°
2026-05-01 14:37 50.06218 9.12801 15379 ft 337 kts 90°
2026-05-01 14:37 50.06273 9.16472 16102 ft 341 kts 90°
2026-05-01 14:37 50.06327 9.20183 16818 ft 345 kts 90°
2026-05-01 14:38 50.06381 9.23926 17537 ft 348 kts 89°
2026-05-01 14:38 50.06435 9.27719 18215 ft 353 kts 90°
2026-05-01 14:38 50.06487 9.31553 18887 ft 356 kts 90°
2026-05-01 14:38 50.06538 9.35421 19501 ft 359 kts 89°
2026-05-01 14:39 50.06585 9.39328 20094 ft 363 kts 90°
2026-05-01 14:39 50.06628 9.43271 20741 ft 365 kts 90°
2026-05-01 14:39 50.06671 9.47234 21368 ft 368 kts 89°
2026-05-01 14:39 50.06716 9.51239 21930 ft 372 kts 89°
2026-05-01 14:40 50.06764 9.55274 22545 ft 374 kts 89°
2026-05-01 14:40 50.06812 9.59336 23125 ft 377 kts 89°
2026-05-01 14:40 50.06858 9.63441 23662 ft 381 kts 89°
2026-05-01 14:40 50.06901 9.67572 24195 ft 383 kts 89°
2026-05-01 14:41 50.06941 9.71737 24641 ft 387 kts 89°
2026-05-01 14:41 50.06981 9.75939 25090 ft 390 kts 89°
2026-05-01 14:41 50.07022 9.80164 25580 ft 391 kts 88°
2026-05-01 14:41 50.07063 9.84422 25978 ft 395 kts 89°
2026-05-01 14:42 50.07103 9.88714 26417 ft 398 kts 88°
2026-05-01 14:42 50.07137 9.93031 26879 ft 400 kts 89°
2026-05-01 14:42 50.07168 9.97388 27253 ft 405 kts 88°
2026-05-01 14:42 50.07196 10.01774 27692 ft 407 kts 89°
2026-05-01 14:43 50.07223 10.06194 28099 ft 410 kts 89°
2026-05-01 14:43 50.07252 10.10650 28500 ft 413 kts 89°
2026-05-01 14:43 50.07280 10.15073 28950 ft 415 kts 89°
2026-05-01 14:43 50.07307 10.19571 29325 ft 418 kts 88°
2026-05-01 14:44 50.07330 10.24111 29708 ft 421 kts 88°
2026-05-01 14:44 50.07368 10.33279 30444 ft 427 kts 89°
2026-05-01 14:44 50.07389 10.37908 30777 ft 429 kts 88°
2026-05-01 14:45 50.07415 10.42568 31081 ft 432 kts 88°
2026-05-01 14:45 50.07469 10.51960 31674 ft 436 kts 88°
2026-05-01 14:45 50.07488 10.56703 31946 ft 439 kts 88°
2026-05-01 14:46 50.07498 10.61455 32344 ft 439 kts 88°
2026-05-01 14:46 50.07503 10.70934 33175 ft 438 kts 89°
2026-05-01 14:46 50.07507 10.75670 33592 ft 437 kts 89°
2026-05-01 14:47 50.07511 10.80394 34000 ft 437 kts 88°
2026-05-01 14:47 50.07514 10.85120 34402 ft 436 kts 88°
2026-05-01 14:47 50.07519 10.89839 34751 ft 436 kts 88°
2026-05-01 14:48 50.07518 10.99262 35411 ft 435 kts 88°
2026-05-01 14:48 50.07514 11.03974 35738 ft 435 kts 88°
2026-05-01 14:48 50.07492 11.13355 36426 ft 433 kts 88°
2026-05-01 14:49 50.07460 11.22707 37045 ft 431 kts 88°
2026-05-01 14:49 50.07431 11.32039 37625 ft 431 kts 88°
2026-05-01 14:50 50.07411 11.38205 37996 ft 430 kts 88°
2026-05-01 14:50 50.07354 11.50643 38753 ft 429 kts 88°
2026-05-01 14:51 50.07325 11.55279 39045 ft 428 kts 88°
2026-05-01 14:51 50.07271 11.64476 39354 ft 429 kts 88°
2026-05-01 14:52 50.07193 11.78395 39381 ft 428 kts 88°
2026-05-01 14:53 50.07091 11.92296 39380 ft 428 kts 89°
2026-05-01 14:53 50.07021 12.00008 39384 ft 428 kts 88°
2026-05-01 14:54 50.06933 12.09283 39381 ft 429 kts 88°
2026-05-01 14:54 50.06829 12.18561 39385 ft 429 kts 89°
2026-05-01 14:55 50.06699 12.27841 39389 ft 429 kts 89°
2026-05-01 14:55 50.06560 12.37129 39390 ft 429 kts 89°
2026-05-01 14:56 50.06548 12.46399 39403 ft 428 kts 85°
2026-05-01 14:56 50.06864 12.55635 39398 ft 427 kts 84°
2026-05-01 14:57 50.07220 12.64855 39394 ft 427 kts 84°
2026-05-01 14:57 50.07624 12.78699 39394 ft 427 kts 85°
2026-05-01 14:58 50.07849 12.87925 39394 ft 426 kts 85°
2026-05-01 14:58 50.08315 12.97089 39408 ft 421 kts 72°
2026-05-01 14:59 50.10556 13.05412 39403 ft 416 kts 63°
2026-05-01 14:59 50.12967 13.13545 39391 ft 416 kts 63°
2026-05-01 15:00 50.16623 13.25881 39380 ft 416 kts 63°
2026-05-01 15:01 50.19020 13.34041 39382 ft 417 kts 63°
2026-05-01 15:01 50.21425 13.42270 39371 ft 417 kts 63°
2026-05-01 15:02 50.23832 13.50513 39386 ft 417 kts 63°
2026-05-01 15:02 50.26237 13.58772 39378 ft 417 kts 63°
2026-05-01 15:03 50.28630 13.67033 39373 ft 417 kts 63°
2026-05-01 15:03 50.31022 13.75304 39372 ft 417 kts 63°
2026-05-01 15:04 50.33399 13.83579 39376 ft 417 kts 63°
2026-05-01 15:04 50.35776 13.91869 39378 ft 417 kts 63°
2026-05-01 15:05 50.38150 14.00159 39385 ft 417 kts 63°
2026-05-01 15:05 50.40511 14.08454 39382 ft 416 kts 64°
2026-05-01 15:06 50.42863 14.16746 39378 ft 416 kts 63°
2026-05-01 15:06 50.45214 14.25037 39380 ft 416 kts 64°
2026-05-01 15:07 50.47558 14.33332 39375 ft 416 kts 64°
2026-05-01 15:07 50.49889 14.41640 39374 ft 416 kts 64°
2026-05-01 15:08 50.52213 14.49956 39364 ft 416 kts 64°
2026-05-01 15:08 50.54539 14.58286 39386 ft 416 kts 64°
2026-05-01 15:09 50.56856 14.66611 39381 ft 415 kts 64°
2026-05-01 15:09 50.59143 14.74873 39375 ft 414 kts 64°
2026-05-01 15:10 50.61443 14.83189 39375 ft 414 kts 64°
2026-05-01 15:10 50.64866 14.95668 39369 ft 413 kts 64°
2026-05-01 15:11 50.68262 15.08128 39372 ft 412 kts 64°
2026-05-01 15:12 50.70526 15.16428 39377 ft 411 kts 64°
2026-05-01 15:12 50.73901 15.28869 39369 ft 411 kts 64°
2026-05-01 15:14 50.79495 15.49638 39357 ft 411 kts 64°
2026-05-01 15:14 50.82826 15.62134 39346 ft 411 kts 64°
2026-05-01 15:15 50.87269 15.78827 39363 ft 411 kts 64°
2026-05-01 15:16 50.91658 15.95465 39354 ft 411 kts 64°
2026-05-01 15:18 50.97101 16.16383 39347 ft 411 kts 64°
2026-05-01 15:19 51.01443 16.33148 39359 ft 410 kts 64°
2026-05-01 15:19 51.04668 16.45720 39352 ft 409 kts 64°
2026-05-01 15:20 51.07895 16.58281 39349 ft 409 kts 64°
2026-05-01 15:21 51.10034 16.66660 39344 ft 409 kts 64°
2026-05-01 15:21 51.12160 16.75057 39339 ft 409 kts 65°
2026-05-01 15:22 51.15342 16.87657 39360 ft 409 kts 64°
2026-05-01 15:22 51.17460 16.96071 39355 ft 409 kts 65°
2026-05-01 15:23 51.19568 17.04486 39352 ft 409 kts 65°
2026-05-01 15:23 51.21669 17.12908 39348 ft 409 kts 65°
2026-05-01 15:24 51.23764 17.21339 39347 ft 409 kts 65°
2026-05-01 15:24 51.25853 17.29773 39349 ft 409 kts 65°
2026-05-01 15:25 51.27950 17.38201 39345 ft 408 kts 65°
2026-05-01 15:25 51.30025 17.46577 39356 ft 408 kts 65°
2026-05-01 15:26 51.32082 17.55017 39350 ft 407 kts 65°
2026-05-01 15:26 51.34133 17.63440 39349 ft 406 kts 65°
2026-05-01 15:27 51.36183 17.71865 39339 ft 406 kts 65°
2026-05-01 15:28 51.38818 17.84776 39334 ft 408 kts 70°
2026-05-01 15:28 51.40327 17.93531 39333 ft 408 kts 71°
2026-05-01 15:29 51.42585 18.06650 39345 ft 407 kts 70°
2026-05-01 15:30 51.45636 18.24079 39330 ft 406 kts 70°
2026-05-01 15:31 51.48665 18.41590 39077 ft 419 kts 70°
2026-05-01 15:31 51.50221 18.50674 38545 ft 423 kts 70°
2026-05-01 15:32 51.51756 18.59730 38003 ft 418 kts 70°
2026-05-01 15:32 51.53265 18.68603 37460 ft 412 kts 70°
2026-05-01 15:33 51.55511 18.81770 36662 ft 403 kts 70°
2026-05-01 15:34 51.57683 18.94692 35839 ft 394 kts 70°